User: anonymous   Login
Location: Melbourne
(37.8170°S, 144.9670°E)
Time: 08:32:42
(UTC+10:00)
Language:

CZ-3 R/B - Orbit

View from above orbital plane
View from above orbital plane
View from above satellite
View from above satellite

Ground track
Ground track

The orbit data is extracted from the following two-line orbital elements,

1 29517U 06048B   15116.44769773  .00164868 -24950-7  18378-2 0  9993
2 29517 028.4758 236.5802 5006587 161.7804 331.2507 05.76322804116752
Epoch (UTC): 26 April 2015 10:44:41
Eccentricity: 0.5006587
inclination: 28.4758°
perigee height: 183 km
apogee height: 13342 km
right ascension of ascending node: 236.5802°
argument of perigee: 161.7804°
revolutions per day: 5.76322804
mean anomaly at epoch: 331.2507°
orbit number at epoch: 11675

The dashed part of the orbit path shows where the satellite is in the earth's shadow,  

DLR